FW3145 Weather Reports


Display with metric or nautical units.
time (UTC)temp
F
wind
direction
speed
MPH
gust
MPH
rain 1hr
in
rain 24hr
in
rain mn
in
humidity
%
barometer
mb
20260510023033 59 226 0.0 0.0 0.01 0.02 0.02 82 1013.6
20260510021630 59 261 0.0 0.0 0.01 0.02 0.02 81 1013.3
20260510020032 60 260 0.0 0.0 0.01 0.02 0.02 81 1013.4
20260510014532 60 284 0.0 0.0 0.01 0.02 0.02 81 1013.5
20260510013029 61 74 0.0 0.0 0.02 0.02 0.02 80 1013.7
20260510011527 61 83 0.0 0.0 0.02 0.02 0.02 80 1013.7
20260510010026 61 61 0.0 0.0 0.02 0.02 0.02 80 1014.0
20260510004525 61 34 0.0 0.0 0.01 0.01 0.01 78 1014.1
20260510003024 61 68 0.0 0.0 0.00 0.00 0.00 76 1014.1
20260510001534 61 240 0.0 0.0 0.00 0.00 0.00 74 1013.9
20260510000020 61 249 0.0 0.0 0.00 0.00 0.00 75 1013.6
20260509234519 60 250 0.0 0.0 0.00 0.00 0.00 76 1013.3
20260509233019 60 246 0.0 0.0 0.00 0.00 0.00 74 1013.5
20260509231517 60 246 0.0 0.0 0.00 0.00 0.00 74 1013.4
20260509230019 60 320 0.0 0.0 0.00 0.00 0.00 73 1013.3
20260509224513 61 5 0.0 0.0 0.00 0.00 0.00 72 1013.2
20260509223013 62 350 0.0 0.0 0.00 0.00 0.00 71 1013.3
20260509221509 62 5 0.0 0.0 0.00 0.00 0.00 71 1013.1
20260509220008 63 341 0.0 0.0 0.00 0.00 0.00 69 1013.5
20260509214504 63 57 0.0 0.0 0.00 0.00 0.00 69 1013.1
20260509213005 63 300 0.0 0.0 0.00 0.00 0.00 67 1013.1
20260509211503 63 298 0.0 0.0 0.00 0.00 0.00 68 1013.1
20260509210003 65 178 0.0 0.0 0.00 0.00 0.00 66 1012.6
20260509204503 65 80 0.0 0.0 0.00 0.00 0.00 66 1013.0
20260509203102 65 75 0.0 0.0 0.00 0.00 0.00 67 1013.2
20260509203000 65 59 0.0 0.0 0.00 0.00 0.00 67 1013.2
20260509201601 64 42 0.0 0.0 0.00 0.00 0.00 68 1013.8
20260509200100 65 67 0.0 0.0 0.00 0.00 0.00 67 1014.3
20260509194559 66 74 0.0 0.0 0.00 0.00 0.00 64 1014.4
20260509193100 66 47 0.0 0.0 0.00 0.00 0.00 63 1014.4
20260509191609 66 55 0.0 0.0 0.00 0.00 0.00 62 1014.2
20260509190100 67 34 0.0 0.0 0.00 0.00 0.00 63 1014.3
20260509184558 68 90 0.0 0.0 0.00 0.00 0.00 61 1014.1
20260509183056 68 58 0.0 0.0 0.00 0.00 0.00 62 1013.5
20260509181603 68 45 0.0 0.0 0.00 0.00 0.00 61 1013.6
20260509180058 69 57 0.0 0.0 0.00 0.00 0.00 61 1013.3
20260509174602 70 88 0.0 0.0 0.00 0.00 0.00 59 1013.3
20260509173109 71 244 0.0 0.0 0.00 0.00 0.00 56 1013.1
20260509171600 72 251 0.0 0.0 0.00 0.00 0.00 51 1013.0
20260509170053 72 263 0.0 0.0 0.00 0.00 0.00 50 1013.0
20260509164553 74 269 0.0 0.0 0.00 0.00 0.00 48 1012.9
20260509163100 74 281 0.0 0.0 0.00 0.00 0.00 50 1012.8
20260509161551 75 233 0.0 0.0 0.00 0.00 0.00 47 1012.7
20260509160057 77 240 0.0 0.0 0.00 0.00 0.00 45 1012.7
20260509154559 78 180 0.0 0.0 0.00 0.00 0.00 43 1012.7
20260509153048 78 149 0.0 0.0 0.00 0.00 0.00 40 1012.8
20260509151552 80 120 0.0 0.0 0.00 0.00 0.00 42 1012.7
20260509150047 80 155 0.0 0.0 0.00 0.00 0.00 39 1012.9
20260509144601 80 41 0.0 0.0 0.00 0.00 0.00 40 1012.8
20260509143044 79 74 0.0 0.0 0.00 0.00 0.00 39 1013.0
20260509141542 80 197 0.0 0.0 0.00 0.00 0.00 40 1013.2
20260509140056 79 94 0.0 0.0 0.00 0.00 0.00 39 1013.6
20260509134538 79 171 0.0 0.0 0.00 0.00 0.00 41 1013.7
20260509133039 79 165 0.0 0.0 0.00 0.00 0.00 40 1013.8
20260509131548 80 182 0.0 0.0 0.00 0.00 0.00 41 1013.9
20260509130036 79 90 0.0 0.0 0.00 0.00 0.00 39 1014.1
20260509124539 79 149 0.0 0.0 0.00 0.00 0.00 41 1014.1
20260509123034 78 236 0.0 0.0 0.00 0.00 0.00 43 1014.0
20260509121547 78 98 0.0 0.0 0.00 0.00 0.00 43 1014.1
20260509120035 77 200 0.0 0.0 0.00 0.00 0.00 40 1014.1
20260509114532 78 206 0.0 0.0 0.00 0.00 0.00 41 1014.2
20260509113027 77 146 0.0 0.0 0.00 0.00 0.00 41 1014.4
20260509111527 77 236 0.0 0.0 0.00 0.00 0.00 43 1014.6
20260509110023 76 234 0.0 0.0 0.00 0.00 0.00 45 1014.4
20260509104521 76 158 0.0 0.0 0.00 0.00 0.00 44 1014.5
20260509103021 75 162 0.0 0.0 0.00 0.00 0.00 44 1014.6
20260509101523 75 198 0.0 0.0 0.00 0.00 0.00 43 1014.8
20260509100016 74 263 0.0 0.0 0.00 0.00 0.00 41 1014.8
20260509094514 74 210 0.0 0.0 0.00 0.00 0.00 39 1014.9
20260509093009 73 151 0.0 0.0 0.00 0.00 0.00 46 1014.9
20260509091506 72 148 0.0 0.0 0.00 0.00 0.00 49 1015.1
20260509090003 71 224 0.0 0.0 0.00 0.00 0.00 51 1015.1
20260509084603 70 165 0.0 0.0 0.00 0.00 0.00 52 1015.0
20260509083059 69 117 0.0 0.0 0.00 0.00 0.00 53 1014.8
20260509081550 68 166 0.0 0.0 0.00 0.00 0.00 57 1014.9
20260509080048 67 217 0.0 0.0 0.00 0.00 0.00 57 1014.9
20260509074543 67 165 0.0 0.0 0.00 0.00 0.00 60 1014.9
20260509073039 65 174 0.0 0.0 0.00 0.00 0.00 65 1015.1
20260509071532 63 207 0.0 0.0 0.00 0.00 0.00 68 1015.4
20260509070028 62 206 0.0 0.0 0.00 0.00 0.00 71 1015.6
20260509064524 61 206 0.0 0.0 0.00 0.00 0.00 72 1015.5
20260509063020 60 198 0.0 0.0 0.00 0.00 0.00 73 1015.7
20260509061521 60 189 0.0 0.0 0.00 0.00 0.00 73 1015.7
20260509060013 59 216 0.0 0.0 0.00 0.00 0.00 76 1015.8
20260509054510 58 231 0.0 0.0 0.00 0.00 0.00 79 1016.0
20260509053007 56 298 0.0 0.0 0.00 0.00 0.00 80 1015.9
20260509051503 55 300 0.0 0.0 0.00 0.00 0.00 81 1015.8
20260509050100 55 300 0.0 0.0 0.00 0.00 0.00 82 1015.5
20260509044559 53 300 0.0 0.0 0.00 0.00 0.00 82 1015.5
20260509043107 52 300 0.0 0.0 0.00 0.00 0.00 82 1015.3
20260509041600 52 300 0.0 0.0 0.00 0.00 0.00 82 1015.0
20260509040055 52 300 0.0 0.0 0.00 0.00 0.00 82 1014.7
20260509034601 52 299 0.0 0.0 0.00 0.00 0.00 82 1014.3
20260509033047 53 310 0.0 0.0 0.00 0.00 0.00 81 1014.2
20260509031548 54 311 0.0 0.0 0.00 0.00 0.00 81 1014.2
20260509030046 54 311 0.0 0.0 0.00 0.00 0.00 81 1014.5
20260509024545 54 313 0.0 0.0 0.00 0.00 0.00 81 1014.5